Station FTPC1 - 9414290 - San Francisco, CA Image indicating link to RSS feed of recent meteorological observations for station FTPC1


Conditions at FTPC1 as of
(3:30 am PDT)
1030 GMT on 09/01/2026:
     

Click on the graph icon in the table below to see a time series plot of the last five days of that observation.

5-day plot - Wind Direction Wind Direction (WDIR):SSW ( 200 deg true )
5-day plot - Wind Speed Wind Speed (WSPD): 4.1 kts
5-day plot - Wind Gust Wind Gust (GST): 6.0 kts
5-day plot - Atmospheric Pressure Atmospheric Pressure (PRES):29.95 in
5-day plot - Air Temperature Air Temperature (ATMP): 61.2 °F
5-day plot - Wind Speed at 10 Meters Wind Speed at 10 meters (WSPD10M): 3.9 kts
5-day plot - Wind Speed at 20 Meters Wind Speed at 20 meters (WSPD20M): 3.9 kts
5-day plot -  Wind Speed, Wind Gust and Atmospheric Pressure Combined plot of Wind Speed, Gust, and Air Pressure
NOS Water Level Observation Network Water Level
Previous observations
TIME
(PDT)
5-day plot - Wind Direction
WDIR
 
5-day plot - Wind Speed
WSPD
kts
5-day plot - Wind Gust
GST
kts
5-day plot - Wave Height
WVHT
ft
5-day plot - Dominant Wave Period
DPD
sec
5-day plot - Average Wave Period
APD
sec
5-day plot - Mean Wave Direction
MWD
 
5-day plot - Atmospheric Pressure
PRES
in
5-day plot - Pressure Tendency
PTDY
in
5-day plot - Air Temperature
ATMP
°F
5-day plot - Water Temperature
WTMP
°F
5-day plot - Dew Point
DEWP
°F
5-day plot - Salinity
SAL
psu
5-day plot - Visibility
VIS
nmi
5-day plot - Tide (above MLLW)
TIDE
ft
2026-09-01 03:24 amSSW 4.1 8.0----29.95- 61.2-----
2026-09-01 03:18 amSSW 5.1 9.9----29.95-------
2026-09-01 03:12 am SW 4.1 7.0----29.95-------
2026-09-01 03:06 amWSW 4.1 8.0----29.95-------
2026-09-01 03:00 am SW 2.9 5.1----29.95- 61.0-----
2026-09-01 02:54 am S 1.9 6.0----29.95- 61.0-----
2026-09-01 02:48 amSSW 2.9 7.0----29.95- 60.8-----
2026-09-01 02:42 am S 4.1 8.0----29.95- 60.8-----
2026-09-01 02:36 am S 2.9 7.0----29.95- 60.8-----
2026-09-01 02:30 am S 2.9 5.1----29.95- 61.0-----
2026-09-01 02:24 amSSW 4.1 7.0----29.95- 61.0-----
2026-09-01 02:18 am S 1.9 8.0----29.95-------
2026-09-01 02:12 am S 2.9 5.1----29.95-------
2026-09-01 02:06 amSSW 4.1 8.0----29.95-------
2026-09-01 02:00 amSSW 5.1 8.0----29.95+0.00 61.2-----
2026-09-01 01:54 am S 5.1 7.0----29.95- 61.2-----
2026-09-01 01:48 am S 5.1 8.0----29.95-------
2026-09-01 01:42 am S 5.1 8.0----29.95-------
2026-09-01 01:36 am S 1.9 5.1----29.95-------
2026-09-01 01:30 am SW 1.9 7.0----29.95- 61.2-----
2026-09-01 01:24 amSSW 4.1 8.0----29.95- 61.2-----
2026-09-01 01:18 am S 5.1 9.9----29.95-------
2026-09-01 01:12 am S 5.1 8.0----29.95-------
2026-09-01 01:06 amSSW 4.1 7.0----29.94-------
2026-09-01 01:00 amWSW 2.9 6.0----29.95+0.00 61.3-----
2026-09-01 12:54 amSSW 5.1 8.9----29.94- 61.3-----
2026-09-01 12:48 amSSW 4.1 8.9----29.95- 61.3-----
2026-09-01 12:42 amSSW 6.0 8.0----29.95- 61.3-----
2026-09-01 12:36 amSSW 6.0 8.9----29.95- 61.5-----
2026-09-01 12:30 amSSW 4.1 6.0----29.95- 61.5-----
2026-09-01 12:24 amSSW 5.1 8.0----29.95- 61.3-----
2026-09-01 12:18 am S 4.1 6.0----29.95- 61.3-----
2026-09-01 12:12 amWSW 4.1 8.9----29.95- 61.2-----
2026-09-01 12:06 am SW 5.1 11.1----29.95- 61.2-----
2026-09-01 12:00 amSSW 2.9 8.9------ 61.2-----
2026-08-31 11:54 pm S 1.9 8.0------ 61.2-----
2026-08-31 11:48 pm S 4.1 6.0----29.94- 61.3-----
2026-08-31 11:42 pmSSW 6.0 8.0----29.95- 61.3-----
2026-08-31 11:36 pm S 2.9 11.1----29.94- 61.3-----
2026-08-31 11:30 pmSSW 7.0 11.1----29.94-------
2026-08-31 11:24 pm S 6.0 8.9----29.95-------
2026-08-31 11:18 pm SW 5.1 9.9----29.95-------
2026-08-31 11:12 pmSSW 4.1 9.9----29.95-------
2026-08-31 11:06 pmSSW 5.1 8.0----29.95-------
2026-08-31 11:00 pm SW 5.1 11.1----29.95+0.02 60.8-----
2026-08-31 10:54 pmSSW 5.1 9.9----29.95- 60.8-----
2026-08-31 10:48 pmSSW 2.9 11.1----29.95- 60.8-----
2026-08-31 10:42 pmSSW 4.1 8.0----29.96- 61.0-----
2026-08-31 10:36 pmWSW 4.1 9.9----29.96- 60.8-----
2026-08-31 10:30 pm SW 8.9 11.1----29.96- 60.8-----
2026-08-31 10:24 pmSSW 6.0 11.1----29.96- 60.8-----
2026-08-31 10:18 pm SW 4.1 7.0----29.96-------
2026-08-31 10:12 pmSSW 4.1 7.0----29.96-------
2026-08-31 10:06 pmSSW 5.1 8.9----29.96-------
2026-08-31 10:00 pm SW 2.9 7.0----29.95+0.03 61.0-----
2026-08-31 09:54 pmWSW 4.1 9.9----29.96- 61.0-----
2026-08-31 09:48 pmSSW 4.1 12.0----29.95- 61.0-----
2026-08-31 09:42 pm W 5.1 9.9----29.95- 61.0-----
2026-08-31 09:36 pm SW 4.1 12.0----29.95- 61.0-----
2026-08-31 09:30 pm SW 5.1 8.9----29.95- 61.2-----
2026-08-31 09:24 pm SW 5.1 8.0----29.95- 61.2-----
2026-08-31 09:18 pm SW 6.0 9.9----29.95-------
2026-08-31 09:12 pmSSW 6.0 9.9----29.95-------
2026-08-31 09:06 pm SW 4.1 6.0----29.95-------
2026-08-31 09:00 pm SW 2.9 9.9----29.95+0.02 61.2-----
2026-08-31 08:54 pmSSW 5.1 8.9----29.94- 61.0-----
2026-08-31 08:48 pmSSW 2.9 7.0----29.94-------
2026-08-31 08:42 pm SW 5.1 8.0----29.94-------
2026-08-31 08:36 pmSSW 4.1 7.0----29.94-------
2026-08-31 08:30 pm S 4.1 6.0----29.93- 60.6-----
2026-08-31 08:24 pm SW 5.1 11.1----29.93- 60.6-----
2026-08-31 08:18 pmSSW 6.0 8.9------------
2026-08-31 08:12 pm S 5.1 8.9------------
2026-08-31 08:06 pmWSW 5.1 11.1------------
2026-08-31 08:00 pmWSW 5.1 8.9----29.93+0.00 60.6-----
2026-08-31 07:54 pmWSW 7.0 8.9----29.93- 60.6-----
2026-08-31 07:48 pmWSW 2.9 12.0----29.93- 60.6-----
2026-08-31 07:42 pm SW 7.0 9.9----29.93- 60.8-----
2026-08-31 07:36 pmWSW 2.9 8.9----29.93- 60.8-----
2026-08-31 07:30 pmWSW 2.9 8.0----29.93- 60.8-----
2026-08-31 07:24 pmSSW 4.1 11.1----29.93- 60.8-----
2026-08-31 07:18 pmWSW 4.1 11.1----29.93-------
2026-08-31 07:12 pmSSW 4.1 11.1----29.93-------
2026-08-31 07:06 pmSSW 6.0 11.1----29.93-------
2026-08-31 07:00 pmSSW 5.1 9.9----29.93-0.01 61.3-----
2026-08-31 06:54 pmWSW 6.0 14.0----29.93- 61.2-----
2026-08-31 06:48 pmWSW 6.0 11.1----29.93- 61.3-----
2026-08-31 06:42 pm SW 4.1 11.1----29.93- 61.5-----
2026-08-31 06:36 pmWSW 6.0 12.0----29.93- 61.5-----
2026-08-31 06:30 pm SW 7.0 11.1----29.93- 61.7-----
2026-08-31 06:24 pm SW 6.0 9.9----29.93- 61.7-----
2026-08-31 06:18 pmWSW 8.0 13.0----29.93-------
2026-08-31 06:12 pmWSW 8.0 17.1----29.93-------
2026-08-31 06:06 pm SW 7.0 13.0----29.92-------
2026-08-31 06:00 pm SW 7.0 13.0----29.92-0.03 61.7-----
2026-08-31 05:54 pm SW 7.0 14.0----29.93- 61.7-----
2026-08-31 05:48 pm SW 7.0 15.9----29.93-------
2026-08-31 05:42 pmWSW 7.0 12.0----29.93-------
2026-08-31 05:36 pm SW 5.1 13.0----29.93-------
2026-08-31 05:30 pm SW 7.0 13.0----29.93- 61.7-----
2026-08-31 05:24 pmWSW 7.0 12.0----29.93- 61.9-----
2026-08-31 05:18 pm SW 6.0 9.9----29.93-------
2026-08-31 05:12 pmSSW 7.0 12.0----29.93-------
2026-08-31 05:06 pmWSW 7.0 12.0----29.93-------
2026-08-31 05:00 pm SW 8.0 20.0----29.93-0.04 62.1-----
2026-08-31 04:54 pmWSW 8.0 14.0----29.93- 62.2-----
2026-08-31 04:48 pm SW 8.9 15.0----29.93-------
2026-08-31 04:42 pm SW 7.0 12.0----29.94-------
2026-08-31 04:36 pm W 8.0 13.0----29.94-------
2026-08-31 03:48 pmSSW 8.0 14.0----29.94- 62.6-----
2026-08-31 03:42 pmSSW 8.0 12.0----29.94- 62.8-----
2026-08-31 03:36 pmSSW 8.9 13.0----29.95- 62.4-----
2026-08-31 03:30 pmSSW 8.9 14.0----29.95- 62.8-----
2026-08-31 03:24 pm SW 6.0 12.0----29.95- 62.8-----
2026-08-31 03:18 pm SW 8.0 12.0----29.95- 62.4-----
2026-08-31 03:12 pm SW 9.9 13.0----29.95- 62.1-----
2026-08-31 03:06 pm SW 8.0 13.0----29.95- 62.2-----
2026-08-31 03:00 pm SW 8.0 15.0----29.96-0.01 62.1-----
2026-08-31 02:54 pm SW 7.0 14.0----29.96- 62.1-----
2026-08-31 02:48 pmSSW 9.9 15.0----29.96- 62.2-----
2026-08-31 02:42 pmSSW 6.0 9.9----29.96- 62.4-----
2026-08-31 02:36 pmSSW 6.0 15.9----29.96- 62.2-----
2026-08-31 02:30 pmSSW 8.0 11.1----29.96- 62.1-----
2026-08-31 02:24 pm SW 6.0 13.0----29.96- 61.7-----
2026-08-31 02:18 pmSSW 8.0 13.0----29.96-------
2026-08-31 02:12 pm SW 7.0 17.1----29.97-------
2026-08-31 02:06 pmSSW 7.0 15.0----29.97-------
2026-08-31 02:00 pmSSW 8.9 15.0----29.97+0.00 61.9-----
2026-08-31 01:54 pm SW 7.0 15.0----29.97- 61.5-----
2026-08-31 01:48 pmSSW 11.1 17.1----29.97- 61.3-----
2026-08-31 01:42 pmSSW 8.9 15.0----29.96- 61.5-----
2026-08-31 01:36 pmSSW 8.9 15.0----29.96- 61.5-----
2026-08-31 01:30 pmSSW 8.9 15.9----29.96-------
2026-08-31 01:24 pm SW 6.0 15.9----29.96-------
2026-08-31 01:18 pm SW 9.9 17.1----29.96-------
2026-08-31 01:12 pm SW 8.9 13.0----29.96-------
2026-08-31 01:06 pmSSW 8.0 14.0----29.96-------
2026-08-31 01:00 pm SW 9.9 18.1----29.96+0.00 60.6-----
2026-08-31 12:54 pmSSW 8.0 13.0----29.96- 61.0-----
2026-08-31 12:48 pm SW 9.9 15.0----29.96- 60.6-----
2026-08-31 12:42 pmSSW 7.0 15.9----29.96- 60.8-----
2026-08-31 12:36 pm SW 11.1 17.1----29.97- 60.3-----
2026-08-31 12:30 pmSSW 8.9 15.0----29.97- 60.4-----
2026-08-31 12:24 pmSSW 8.9 15.9----29.97- 60.4-----
2026-08-31 12:18 pm SW 8.9 13.0----29.97-------
2026-08-31 12:12 pmSSW 7.0 14.0----29.97-------
2026-08-31 12:06 pm SW 9.9 14.0----29.97-------
2026-08-31 12:00 pmSSW 8.0 13.0----29.97+0.02 60.1-----
2026-08-31 11:54 amSSW 8.0 14.0----29.97- 60.1-----
2026-08-31 11:48 am SW 11.1 17.1----29.97- 59.9-----
2026-08-31 11:42 am SW 7.0 15.0----29.97- 60.1-----
2026-08-31 11:36 am SW 7.0 14.0----29.97- 59.9-----
2026-08-31 11:30 am SW 9.9 15.9----29.97- 59.7-----
2026-08-31 11:24 amSSW 8.0 15.9----29.97- 59.5-----
2026-08-31 11:18 amSSW 8.0 15.0----29.97-------
2026-08-31 11:12 am SW 8.9 14.0----29.97-------
2026-08-31 11:06 amSSW 7.0 13.0----29.97-------
2026-08-31 11:00 amSSW 8.9 15.9----29.97+0.03 59.4-----
2026-08-31 10:54 am SW 4.1 14.0----29.97- 59.7-----
2026-08-31 10:48 amSSW 8.0 15.0----29.97-------
2026-08-31 10:42 amSSW 7.0 11.1----29.96-------
2026-08-31 10:36 amSSW 8.9 15.0----29.96-------
2026-08-31 10:30 amSSW 8.0 14.0----29.96- 58.8-----
2026-08-31 10:24 amSSW 7.0 14.0----29.96- 58.6-----
2026-08-31 10:18 amSSW 8.0 13.0----29.96-------
2026-08-31 10:12 amSSW 9.9 14.0----29.96-------
2026-08-31 10:06 amSSW 5.1 12.0----29.96-------
2026-08-31 10:00 am SW 6.0 11.1----29.96+0.04 58.1-----
2026-08-31 09:54 am SW 7.0 13.0----29.96- 58.1-----
2026-08-31 09:48 am SW 6.0 14.0----29.96- 57.9-----
2026-08-31 09:42 amSSW 8.0 14.0----29.96- 57.7-----
2026-08-31 09:36 am SW 7.0 13.0----29.96- 57.9-----
2026-08-31 09:30 amWSW 8.9 15.0----29.96- 57.9-----
2026-08-31 09:24 am SW 7.0 11.1----29.95- 57.7-----
2026-08-31 09:18 am SW 8.0 11.1----29.95-------
2026-08-31 09:12 am SW 8.0 14.0----29.95-------
2026-08-31 09:06 am SW 2.9 11.1----29.95-------
2026-08-31 09:00 am SW 5.1 11.1----29.95+0.04 57.9-----
2026-08-31 08:54 amSSW 8.0 14.0----29.94- 57.7-----
2026-08-31 08:48 am S 6.0 12.0----29.95- 57.7-----
2026-08-31 08:42 am S 8.9 13.0----29.95- 57.6-----
2026-08-31 08:36 am SW 2.9 9.9----29.95- 57.7-----
2026-08-31 08:30 amSSW 6.0 11.1----29.94- 57.6-----
2026-08-31 08:24 amSSW 7.0 9.9----29.94- 57.4-----
2026-08-31 08:18 am S 6.0 8.9----29.94-------
2026-08-31 08:12 amSSW 6.0 8.9----29.94-------
2026-08-31 08:06 am SW 5.1 11.1----29.94-------
2026-08-31 08:00 amSSW 4.1 9.9----29.94+0.04 57.2-----
2026-08-31 07:54 amSSW 6.0 11.1----29.94- 57.2-----
2026-08-31 07:48 am S 5.1 8.9----29.94- 57.2-----
2026-08-31 07:42 amSSW 8.0 11.1----29.93- 57.0-----
2026-08-31 07:36 amSSW 5.1 8.0----29.93- 57.0-----
2026-08-31 07:30 amSSW 6.0 8.0----29.93- 56.8-----
2026-08-31 07:24 amSSW 4.1 8.9----29.93- 56.8-----
2026-08-31 07:18 am W 2.9 8.9----29.93-------
2026-08-31 07:12 am SW 6.0 8.9----29.93-------
2026-08-31 07:06 amWSW 7.0 11.1----29.92-------
2026-08-31 07:00 amWSW 6.0 11.1----29.92+0.02 57.0-----
2026-08-31 06:54 am W 1.0 6.0----29.92- 57.0-----
2026-08-31 06:48 amSSW 1.9 12.0----29.92-------
2026-08-31 06:42 amWSW 5.1 11.1----29.92-------
2026-08-31 06:36 am SW 5.1 12.0----29.92-------
2026-08-31 06:30 am SW 5.1 8.9----29.92- 57.0-----
2026-08-31 06:24 am W 1.9 8.0----29.92- 57.0-----
2026-08-31 06:18 am SW 1.9 11.1----29.92-------
2026-08-31 06:12 am SW 8.0 13.0----29.91-------
2026-08-31 06:06 am SW 5.1 15.9----29.91-------
2026-08-31 06:00 amWSW 5.1 9.9----29.91+0.01 57.0-----
2026-08-31 05:54 am SW 5.1 12.0----29.91- 57.2-----
2026-08-31 05:48 amSSW 5.1 13.0----29.91-------
2026-08-31 05:42 am SW 8.9 17.1----29.91-------
2026-08-31 05:36 amWSW 8.0 19.0----29.91-------
2026-08-31 05:30 am SW 5.1 11.1----29.91- 57.6-----
2026-08-31 05:24 amSSW 6.0 11.1----29.91- 57.7-----
2026-08-31 05:18 amSSW 9.9 17.1----29.91-------
2026-08-31 05:12 amWSW 11.1 17.1----29.91-------
2026-08-31 05:06 amSSW 7.0 13.0----29.90-------
2026-08-31 05:00 amWSW 6.0 19.0----29.90+0.00 57.9-----
2026-08-31 04:54 am SW 6.0 11.1----29.90- 57.9-----
2026-08-31 04:48 am SW 7.0 14.0----29.90-------
2026-08-31 04:42 amSSW 5.1 13.0----29.91-------
2026-08-31 04:36 amSSW 6.0 15.0----29.90-------
2026-08-31 04:30 am SW 6.0 15.0----29.90- 57.7-----
2026-08-31 04:24 amSSW 9.9 15.9----29.90- 57.9-----
2026-08-31 04:18 amSSW 8.0 14.0----29.90-------
2026-08-31 04:12 amSSW 6.0 13.0----29.91-------
2026-08-31 04:06 amSSW 8.9 15.9----29.91-------
2026-08-31 04:00 amSSW 8.0 15.9----29.91+0.00 57.7-----
2026-08-31 03:54 amSSW 8.9 13.0----29.90- 57.6-----